TimeEST,TemperatureF,Dew PointF,Humidity,Sea Level PressureIn,VisibilityMPH,Wind Direction,Wind SpeedMPH,Gust SpeedMPH,PrecipitationIn,Events,Conditions,WindDirDegrees,DateUTC
12:40 AM,44.6,44.6,100,30.02,10.0,Calm,Calm,-,0.03,Rain,Light Rain,0,2013-01-17 05:40:00
12:56 AM,44.6,44.6,100,30.01,10.0,Calm,Calm,-,N/A,Rain,Light Rain,0,2013-01-17 05:56:00
1:16 AM,44.6,44.6,100,30.01,10.0,West,3.5,-,N/A,Rain,Light Rain,280,2013-01-17 06:16:00
2:00 AM,44.6,44.6,100,30.02,10.0,West,4.6,-,N/A,,Overcast,280,2013-01-17 07:00:00
2:36 AM,44.6,44.6,100,30.03,10.0,West,8.1,-,N/A,,Overcast,270,2013-01-17 07:36:00
3:00 AM,44.6,42.8,93,30.03,10.0,West,8.1,-,N/A,,Overcast,280,2013-01-17 08:00:00
3:37 AM,44.6,42.8,93,30.04,10.0,WNW,9.2,-,N/A,,Overcast,290,2013-01-17 08:37:00
4:00 AM,42.8,42.8,100,30.04,10.0,WNW,10.4,-,N/A,,Light Drizzle,290,2013-01-17 09:00:00
4:41 AM,42.8,42.8,100,30.03,10.0,WNW,4.6,-,0.01,Rain,Light Rain,290,2013-01-17 09:41:00
4:57 AM,42.8,42.8,100,30.04,10.0,West,5.8,-,N/A,Rain,Light Rain,260,2013-01-17 09:57:00
5:22 AM,41.0,41.0,100,30.03,10.0,West,3.5,-,0.01,Rain,Rain,260,2013-01-17 10:22:00
5:41 AM,41.0,41.0,100,30.02,7.0,West,3.5,-,0.02,Rain,Rain,270,2013-01-17 10:41:00
6:20 AM,39.2,39.2,100,30.03,10.0,Calm,Calm,-,0.02,Rain,Rain,0,2013-01-17 11:20:00
6:37 AM,39.2,39.2,100,30.06,10.0,West,5.8,-,0.02,Rain,Rain,280,2013-01-17 11:37:00
6:56 AM,37.4,37.4,100,30.04,10.0,Calm,Calm,-,N/A,Rain,Light Rain,0,2013-01-17 11:56:00
7:37 AM,37.4,35.6,93,30.06,10.0,West,4.6,-,N/A,Rain,Light Rain,260,2013-01-17 12:37:00
8:03 AM,37.4,35.6,93,30.07,10.0,West,3.5,-,N/A,,Overcast,270,2013-01-17 13:03:00
8:21 AM,37.4,35.6,93,30.06,10.0,NW,3.5,-,N/A,Rain,Light Rain,310,2013-01-17 13:21:00
9:17 AM,37.4,37.4,100,30.07,10.0,Calm,Calm,-,0.02,Rain,Light Rain,0,2013-01-17 14:17:00
9:36 AM,37.4,37.4,100,30.07,10.0,Calm,Calm,-,0.02,Rain,Light Rain,0,2013-01-17 14:36:00
9:57 AM,37.4,37.4,100,30.09,3.0,WSW,4.6,-,0.01,Rain,Rain,250,2013-01-17 14:57:00
10:17 AM,35.6,35.6,100,30.08,3.0,Calm,Calm,-,0.06,Rain,Rain,0,2013-01-17 15:17:00
10:37 AM,35.6,35.6,100,30.06,3.0,Calm,Calm,-,0.11,Rain,Rain,0,2013-01-17 15:37:00
11:16 AM,37.4,37.4,100,30.07,1.5,Calm,Calm,-,0.06,Snow,Light Snow,0,2013-01-17 16:16:00
11:36 AM,37.4,37.4,100,30.07,4.0,NNE,4.6,-,0.12,Rain,Rain,20,2013-01-17 16:36:00
11:57 AM,37.4,35.6,93,30.07,4.0,Calm,Calm,-,N/A,Rain,Rain,0,2013-01-17 16:57:00
12:16 PM,35.6,35.6,100,30.03,3.0,ENE,4.6,-,0.04,Snow,Light Snow,70,2013-01-17 17:16:00
12:36 PM,35.6,35.6,100,30.01,1.5,NE,5.8,-,0.15,Snow,Light Snow,40,2013-01-17 17:36:00
1:19 PM,35.6,35.6,100,30.01,3.0,ENE,4.6,-,0.05,Snow,Snow,60,2013-01-17 18:19:00
1:36 PM,35.6,35.6,100,29.99,1.8,NE,6.9,-,0.09,Snow,Light Snow,40,2013-01-17 18:36:00
2:18 PM,35.6,35.6,100,30.02,1.5,ENE,4.6,-,N/A,Snow,Light Snow,70,2013-01-17 19:18:00
2:36 PM,33.8,33.8,100,30.02,1.0,Calm,Calm,-,N/A,Snow,Light Snow,0,2013-01-17 19:36:00
3:36 PM,33.8,33.8,100,30.04,0.2,Calm,Calm,-,N/A,Snow,Snow,0,2013-01-17 20:36:00
4:16 PM,33.8,33.8,100,30.04,0.2,NNE,4.6,-,N/A,Snow,Heavy Snow,20,2013-01-17 21:16:00
4:56 PM,33.8,33.8,100,30.07,0.2,Calm,Calm,-,N/A,Snow,Snow,0,2013-01-17 21:56:00
8:16 PM,35.6,35.6,100,30.05,10.0,North,3.5,-,N/A,,Scattered Clouds,350,2013-01-18 01:16:00
8:37 PM,35.6,35.6,100,30.08,10.0,NNW,3.5,-,N/A,,Mostly Cloudy,340,2013-01-18 01:37:00
8:59 PM,35.6,35.6,100,30.03,10.0,North,3.5,-,N/A,,Overcast,10,2013-01-18 01:59:00
9:18 PM,35.6,35.6,100,30.02,10.0,North,10.4,-,N/A,,Overcast,350,2013-01-18 02:18:00
9:37 PM,35.6,35.6,100,30.05,7.0,NW,6.9,-,N/A,,Overcast,320,2013-01-18 02:37:00
10:16 PM,35.6,35.6,100,30.10,10.0,NW,6.9,-,N/A,,Mostly Cloudy,310,2013-01-18 03:16:00
10:36 PM,35.6,33.8,93,30.13,10.0,WNW,8.1,-,N/A,,Scattered Clouds,300,2013-01-18 03:36:00
10:58 PM,33.8,33.8,100,30.13,10.0,NW,6.9,-,N/A,,Scattered Clouds,310,2013-01-18 03:58:00
11:17 PM,33.8,32.0,93,30.15,10.0,NW,9.2,-,N/A,,Scattered Clouds,310,2013-01-18 04:17:00
11:58 PM,32.0,30.2,93,30.17,10.0,WNW,9.2,-,N/A,,Clear,300,2013-01-18 04:58:00